Home   Weather   Jeddah   Past weeks

Flag for Saudi Arabia Past Weather in Jeddah, Saudi Arabia — Yesterday and Last 2 Weeks

Now
79 °F

Passing clouds.


Feels Like: 81 °F
Forecast: 73 / 83 °F
Wind: 5 mph from West

Location: Jeddah King Abdul Aziz International Airport

Current Time: Jan 21, 2017 at 6:38:13 pm

Latest Report: Jan 21, 2017 at 6:00 pm


Visibility: N/A

Pressure: 29.89 "Hg

Humidity: 65%

Dew Point: 66 °F

Location of JeddahLocation

Past Weather in Jeddah — Graph

°F

Jeddah Temperature Yesterday

Maximum temperature yesterday: 84 °F (at 12:00 pm)
Minimum temperature yesterday: 68 °F (at 5:00 am)
Average temperature yesterday: 76 °F

High & Low Weather Summary for the Past Weeks

 TemperatureHumidityPressure
High88 °F (Jan 15, 12:00 pm)94% (Jan 17, 8:00 am)30.04 "Hg (Jan 17, 8:00 am)
Low63 °F (Jan 10, 7:00 am)34% (Jan 10, 12:00 pm)29.80 "Hg (Jan 14, 2:00 pm)
Average76 °F64%29.93 "Hg
* Reported Jan 6 5:00 pm — Jan 21 5:00 pm, Jeddah, Weather by CustomWeather, © 2017

Note: Actual official high and low records may vary slightly from our data, if they occured in-between our weather recording intervals... More about our weather records

Advertising

Jeddah Weather History for the Previous 24 Hours

Scroll right to see more
 ConditionsComfort  
Time TempWeatherWind HumidityBarometerVisibility
5:00 pm
Sat, Jan 21
81 °FPassing clouds.7 mph58%29.89 "HgN/A
4:00 pm81 °FPassing clouds.7 mph62%29.89 "HgN/A
3:00 pm81 °FPassing clouds.5 mph62%29.89 "HgN/A
2:00 pm81 °FPassing clouds.7 mph66%29.92 "HgN/A
1:00 pm81 °FPassing clouds.12 mph66%29.92 "HgN/A
12:00 pm81 °FPassing clouds.9 mph66%29.95 "HgN/A
11:00 am81 °FScattered clouds.9 mph58%29.98 "HgN/A
10:00 am79 °FPassing clouds.5 mph61%29.98 "HgN/A
9:00 am77 °FSunny.7 mph69%29.95 "Hg10 mi
8:00 am72 °FSunny.3 mph78%29.95 "Hg10 mi
7:00 am72 °FClear.No wind83%29.92 "Hg10 mi
6:00 am72 °FClear.2 mph78%29.89 "Hg10 mi
5:00 am72 °FClear.2 mph78%29.89 "Hg10 mi
4:00 am73 °FClear.2 mph74%29.89 "Hg10 mi
3:30 am75 °FClear.No wind69%29.89 "Hg10 mi
2:00 am75 °FClear.No wind69%29.89 "Hg10 mi
1:00 am75 °FClear.2 mph69%29.92 "Hg10 mi
12:00 am75 °FClear.2 mph74%29.95 "Hg10 mi
11:00 pm
Fri, Jan 20
75 °FClear.2 mph74%29.95 "Hg10 mi
10:00 pm77 °FClear.7 mph74%29.95 "Hg10 mi
9:00 pm77 °FClear.5 mph74%29.95 "Hg10 mi
8:00 pm77 °FClear.5 mph74%29.92 "Hg10 mi
7:00 pm79 °FClear.7 mph70%29.92 "Hg10 mi
6:00 pm79 °FSunny.12 mph70%29.89 "Hg10 mi
Weather by CustomWeather, © 2017

See weather overviewHow to use our weather pages